International Skating Union - Official Site

Essent ISU World Cup Heerenveen
November 16-18, 2012

Draw | Lap Times | Index | World Cup

Referee: Daniel  CABELDUC  (SWE)
Starter: Roland  STEENBECK  (GER)
StartTime: EndTime: Air Temp: Ice Temp: Humidity:
16:20
Result Team Pursuit Ladies
Rankings as of Nov 18 2012 5:50PM
Rank: No.: Team: Nation: Time: Behind: Points:
Total 11
1 7 Germany (30) Stephanie Beckert (34) Isabell Ost (35) Claudia Pechstein (0)   GER GER 3:01.140.5 - 19.74 - (19.7)
1.0 - 34.29 - (14.5)
1.5 - 48.39 - (14.1)
2.0 - 1:02.75 - (14.3)
2.5 - 1:17.17 - (14.4)
3.0 - 1:31.94 - (14.7)
3.5 - 1:46.53 - (14.5)
4.0 - 2:01.53 - (15.0)
4.5 - 2:16.34 - (14.8)
5.0 - 2:31.23 - (14.8)
5.5 - 2:46.16 - (14.9)
6.0 - 3:01.14 - (14.9)
100
2 6 Netherlands (68) Marije Joling (71) Marrit Leenstra (75) Diane Valkenburg (0)   NED NED 3:02.33 (1) 0.5 - 18.88 - (18.8)
1.0 - 33.03 - (14.1)
1.5 - 47.17 - (14.1)
2.0 - 1:01.14 - (13.9)
2.5 - 1:15.59 - (14.4)
3.0 - 1:30.12 - (14.5)
3.5 - 1:44.88 - (14.7)
4.0 - 1:59.79 - (14.9)
4.5 - 2:15.10 - (15.3)
5.0 - 2:30.31 - (15.2)
5.5 - 2:46.03 - (15.7)
6.0 - 3:02.33 - (16.2)
1.19 80
3 1 Canada (7) Ivanie Blondin (12) Christine Nesbitt (14) Brittany Schussler (0)   CAN CAN 3:02.33 (7) 0.5 - 19.08 - (19.0)
1.0 - 33.42 - (14.3)
1.5 - 47.80 - (14.3)
2.0 - 1:02.17 - (14.3)
2.5 - 1:16.79 - (14.6)
3.0 - 1:31.59 - (14.7)
3.5 - 1:46.15 - (14.5)
4.0 - 2:01.10 - (14.9)
4.5 - 2:16.23 - (15.1)
5.0 - 2:31.45 - (15.2)
5.5 - 2:46.89 - (15.4)
6.0 - 3:02.33 - (15.4)
1.19 70
4 4 Poland (84) Katarzyna Bachleda-Curus (85) Natalia Czerwonka (88) Luiza Zlotkowska (0)   POL POL 3:02.920.5 - 18.97 - (18.9)
1.0 - 33.46 - (14.4)
1.5 - 47.95 - (14.4)
2.0 - 1:02.56 - (14.6)
2.5 - 1:17.06 - (14.5)
3.0 - 1:31.70 - (14.6)
3.5 - 1:46.57 - (14.8)
4.0 - 2:01.79 - (15.2)
4.5 - 2:17.12 - (15.3)
5.0 - 2:32.47 - (15.3)
5.5 - 2:47.51 - (15.0)
6.0 - 3:02.92 - (15.4)
1.78 60
5 3 Korea (57) Bo-Reum Kim (61) Seon-Yeong Noh (62) Do-Yeong Park (0)   KOR KOR 3:03.130.5 - 19.44 - (19.4)
1.0 - 33.84 - (14.4)
1.5 - 48.08 - (14.2)
2.0 - 1:02.28 - (14.2)
2.5 - 1:16.75 - (14.4)
3.0 - 1:31.30 - (14.5)
3.5 - 1:46.14 - (14.8)
4.0 - 2:00.98 - (14.8)
4.5 - 2:16.05 - (15.0)
5.0 - 2:31.25 - (15.1)
5.5 - 2:46.94 - (15.6)
6.0 - 3:03.13 - (16.1)
1.99 50
6 5 Japan (42) Masako Hozumi (45) Ayaka Kikuchi (51) Miho Takagi (0)   JPN JPN 3:05.730.5 - 19.64 - (19.6)
1.0 - 34.40 - (14.7)
1.5 - 48.72 - (14.3)
2.0 - 1:03.39 - (14.6)
2.5 - 1:17.81 - (14.4)
3.0 - 1:32.57 - (14.7)
3.5 - 1:47.66 - (15.0)
4.0 - 2:03.05 - (15.3)
4.5 - 2:18.60 - (15.5)
5.0 - 2:34.53 - (15.9)
5.5 - 2:49.96 - (15.4)
6.0 - 3:05.73 - (15.7)
4.59 45
7 9 Norway (80) Hege Bøkko (82) Mari Hemmer (83) Ida Njåtun (0)   NOR NOR 3:06.250.5 - 19.27 - (19.2)
1.0 - 33.81 - (14.5)
1.5 - 48.14 - (14.3)
2.0 - 1:02.64 - (14.5)
2.5 - 1:17.67 - (15.0)
3.0 - 1:32.72 - (15.0)
3.5 - 1:48.25 - (15.5)
4.0 - 2:03.83 - (15.5)
4.5 - 2:19.54 - (15.7)
5.0 - 2:35.03 - (15.4)
5.5 - 2:50.67 - (15.6)
6.0 - 3:06.25 - (15.5)
5.11 40
8 2 Russia (93) Olga Graf (95) Yekaterina Lobysheva (99) Yuliya Skokova (0)   RUS RUS 3:06.490.5 - 19.05 - (19.0)
1.0 - 33.82 - (14.7)
1.5 - 48.51 - (14.6)
2.0 - 1:03.19 - (14.6)
2.5 - 1:17.83 - (14.6)
3.0 - 1:32.73 - (14.9)
3.5 - 1:47.97 - (15.2)
4.0 - 2:03.31 - (15.3)
4.5 - 2:18.69 - (15.3)
5.0 - 2:34.27 - (15.5)
5.5 - 2:49.89 - (15.6)
6.0 - 3:06.49 - (16.5)
5.35 35
9 8 USA (103) Brittany Bowe (106) Heather Richardson (107) Jilleanne Rookard (0)   USA USA 3:06.850.5 - 18.98 - (18.9)
1.0 - 33.40 - (14.4)
1.5 - 47.92 - (14.5)
2.0 - 1:02.62 - (14.6)
2.5 - 1:17.64 - (15.0)
3.0 - 1:32.53 - (14.8)
3.5 - 1:47.71 - (15.1)
4.0 - 2:03.23 - (15.5)
4.5 - 2:19.21 - (15.9)
5.0 - 2:34.91 - (15.6)
5.5 - 2:50.90 - (15.9)
6.0 - 3:06.85 - (15.9)
5.71 30
10 10 Italy (39) Francesca Bettrone (40) Yvonne Dalldossi (41) Paola Simionato (0)   ITA ITA 3:09.720.5 - 19.34 - (19.3)
1.0 - 34.20 - (14.8)
1.5 - 48.86 - (14.6)
2.0 - 1:03.99 - (15.1)
2.5 - 1:19.48 - (15.4)
3.0 - 1:35.25 - (15.7)
3.5 - 1:51.04 - (15.7)
4.0 - 2:06.59 - (15.5)
4.5 - 2:22.61 - (16.0)
5.0 - 2:38.58 - (15.9)
5.5 - 2:54.21 - (15.6)
6.0 - 3:09.72 - (15.5)
8.58 25
11 11 China (19) Yichi Liu (21) Jianlu Wang (24) Xin Zhao (0)   CHN CHN 3:09.870.5 - 19.28 - (19.2)
1.0 - 33.96 - (14.6)
1.5 - 48.61 - (14.6)
2.0 - 1:03.82 - (15.2)
2.5 - 1:19.11 - (15.2)
3.0 - 1:34.68 - (15.5)
3.5 - 1:49.77 - (15.0)
4.0 - 2:05.37 - (15.6)
4.5 - 2:21.57 - (16.1)
5.0 - 2:37.85 - (16.2)
5.5 - 2:53.93 - (16.0)
6.0 - 3:09.85 - (15.9)
8.73 21